TimePST,TemperatureF,Dew PointF,Humidity,Sea Level PressureIn,VisibilityMPH,Wind Direction,Wind SpeedMPH,Gust SpeedMPH,PrecipitationIn,Events,Conditions,WindDirDegrees,DateUTC
12:07 AM,57.2,53.6,88,29.98,7.0,East,3.5,-,N/A,,Overcast,90,2012-12-12 08:07:00
12:51 AM,57.0,53.1,87,29.96,7.0,Calm,Calm,-,N/A,,Overcast,0,2012-12-12 08:51:00
1:51 AM,57.0,53.1,87,29.96,7.0,East,3.5,-,N/A,,Overcast,100,2012-12-12 09:51:00
2:51 AM,57.0,52.0,83,29.95,7.0,Calm,Calm,-,N/A,,Overcast,0,2012-12-12 10:51:00
3:49 AM,57.2,53.6,88,29.95,5.0,Calm,Calm,-,N/A,,Overcast,0,2012-12-12 11:49:00
3:51 AM,57.0,53.1,87,29.95,5.0,Calm,Calm,-,N/A,,Overcast,0,2012-12-12 11:51:00
5:51 AM,57.0,52.0,83,29.95,7.0,East,4.6,-,N/A,,Overcast,100,2012-12-12 13:51:00
6:37 AM,57.2,51.8,82,29.95,8.0,ESE,5.8,-,N/A,,Overcast,110,2012-12-12 14:37:00
6:51 AM,57.0,51.1,81,29.95,8.0,ESE,4.6,-,N/A,,Overcast,110,2012-12-12 14:51:00
7:15 AM,57.2,51.8,82,29.95,6.0,ESE,6.9,-,N/A,,Haze,110,2012-12-12 15:15:00
7:51 AM,57.0,51.1,81,29.96,5.0,ESE,5.8,-,N/A,,Haze,120,2012-12-12 15:51:00
8:51 AM,57.9,51.1,78,29.96,7.0,East,5.8,-,N/A,,Overcast,100,2012-12-12 16:51:00
9:51 AM,60.1,51.1,72,29.96,9.0,SE,5.8,-,N/A,,Overcast,140,2012-12-12 17:51:00
11:51 AM,60.1,48.0,64,29.93,10.0,South,6.9,-,N/A,,Overcast,190,2012-12-12 19:51:00
12:51 PM,60.1,46.0,60,29.90,10.0,South,5.8,-,N/A,,Overcast,190,2012-12-12 20:51:00
1:51 PM,61.0,46.0,58,29.88,10.0,SSW,8.1,-,N/A,,Overcast,210,2012-12-12 21:51:00
2:51 PM,61.0,46.0,58,29.88,10.0,SSW,6.9,-,N/A,,Overcast,210,2012-12-12 22:51:00
3:51 PM,60.1,46.9,62,29.86,10.0,South,4.6,-,N/A,,Overcast,170,2012-12-12 23:51:00
4:51 PM,61.0,46.9,60,29.86,10.0,SSW,5.8,-,N/A,,Overcast,200,2012-12-13 00:51:00
5:51 PM,60.1,46.9,62,29.86,10.0,South,3.5,-,N/A,,Overcast,180,2012-12-13 01:51:00
6:51 PM,60.1,48.0,64,29.86,10.0,SSE,4.6,-,N/A,,Overcast,160,2012-12-13 02:51:00
7:51 PM,60.1,48.0,64,29.85,10.0,SSE,4.6,-,N/A,,Overcast,160,2012-12-13 03:51:00
8:24 PM,57.2,53.6,88,29.86,9.0,WSW,6.9,-,0.01,Rain,Light Rain,250,2012-12-13 04:24:00
8:51 PM,55.9,54.0,93,29.86,10.0,West,3.5,-,0.01,,Overcast,270,2012-12-13 04:51:00
9:03 PM,55.4,53.6,94,29.86,10.0,Calm,Calm,-,N/A,,Overcast,0,2012-12-13 05:03:00
9:51 PM,55.9,54.0,93,29.86,8.0,WSW,3.5,-,0.02,Rain,Light Rain,240,2012-12-13 05:51:00
10:51 PM,55.9,54.0,93,29.86,4.0,SW,6.9,-,0.05,Rain,Light Rain,230,2012-12-13 06:51:00
11:13 PM,55.4,53.6,94,29.85,2.5,SSW,10.4,-,0.06,Rain,Rain,200,2012-12-13 07:13:00
11:21 PM,55.4,53.6,94,29.85,4.0,SSW,8.1,-,0.07,Rain,Light Rain,210,2012-12-13 07:21:00
11:28 PM,55.4,53.6,94,29.85,3.0,SW,5.8,-,0.08,Rain,Rain,230,2012-12-13 07:28:00
11:39 PM,55.4,53.6,94,29.84,9.0,WSW,4.6,-,0.09,Rain,Light Rain,240,2012-12-13 07:39:00
11:51 PM,55.9,54.0,93,29.84,10.0,SW,3.5,-,0.09,,Overcast,220,2012-12-13 07:51:00